This is the latest recevied weather packets stored in our database for station/object DO1YM-13. If no packets are shown the sender has not sent any weather packets the latest 10 day(s).
| Time | Temp. | Humidity | Pressure | Rain* | Wind** | Luminosity | Snow |
|---|---|---|---|---|---|---|---|
| 1787691347 | 17.22° C | 64% | 1014.6 hPa | 0 mm | - | 0 W/m² | - |
| 1787691048 | 17.78° C | 64% | 1014.6 hPa | 0 mm | - | 0 W/m² | - |
| 1787690748 | 17.78° C | 65% | 1014.6 hPa | 0 mm | - | 0 W/m² | - |
| 1787690448 | 17.78° C | 62% | 1014.6 hPa | 0 mm | - | 0 W/m² | - |
| 1787690150 | 18.33° C | 61% | 1014.6 hPa | 0 mm | - | 0 W/m² | - |
| 1787689848 | 18.33° C | 60% | 1014.6 hPa | 0 mm | - | 0 W/m² | - |
| 1787689548 | 18.33° C | 60% | 1014.6 hPa | 0 mm | - | 0 W/m² | - |
| 1787689248 | 18.33° C | 60% | 1014.6 hPa | 0 mm | - | 0 W/m² | - |
| 1787688948 | 17.78° C | 60% | 1014.6 hPa | 0 mm | - | 0 W/m² | - |
| 1787688648 | 17.78° C | 61% | 1014.6 hPa | 0 mm | - | 0 W/m² | - |
| 1787688348 | 17.78° C | 61% | 1014.2 hPa | 0 mm | - | 0 W/m² | - |
| 1787688047 | 17.78° C | 61% | 1014.6 hPa | 0 mm | - | 0 W/m² | - |
| 1787687753 | 17.78° C | 62% | 1014.6 hPa | 0 mm | - | 0 W/m² | - |
| 1787687447 | 18.33° C | 60% | 1013.9 hPa | 0 mm | - | 0 W/m² | - |
| 1787687147 | 18.33° C | 60% | 1013.9 hPa | 0 mm | - | 0 W/m² | - |
| 1787686848 | 18.33° C | 62% | 1014.2 hPa | 0 mm | - | 0 W/m² | - |
| 1787686548 | 18.33° C | 62% | 1014.2 hPa | 0 mm | - | 0 W/m² | - |
| 1787686248 | 18.33° C | 59% | 1014.2 hPa | 0 mm | - | 0 W/m² | - |
| 1787685947 | 18.33° C | 62% | 1013.9 hPa | 0 mm | - | 0 W/m² | - |
| 1787685648 | 18.33° C | 61% | 1013.9 hPa | 0 mm | - | 0 W/m² | - |
| 1787685348 | 18.33° C | 59% | 1013.9 hPa | 0 mm | - | 0 W/m² | - |
| 1787685048 | 18.89° C | 58% | 1013.9 hPa | 0 mm | - | 0 W/m² | - |
| 1787684749 | 18.89° C | 58% | 1013.9 hPa | 0 mm | - | 0 W/m² | - |
| 1787684448 | 18.89° C | 56% | 1013.9 hPa | 0 mm | - | 0 W/m² | - |
| 1787684147 | 19.44° C | 56% | 1013.9 hPa | 0 mm | - | 0 W/m² | - |
* Rain since midnight (hover to see other rain measurements)
** Current wind speed in m/s (hover to see current wind gust speed)